FW8733 Weather Reports


time (UTC)temp
C
wind
direction
speed
KPH
gust
KPH
rain 1hr
cm
rain 24hr
cm
rain mn
cm
humidity
%
barometer
mb
20260505060235 22 166 8.0 12.9 0.00 0.00 0.00 88 1012.4
20260505055730 22 219 0.0 0.0 0.00 0.00 0.00 88 1012.6
20260505055227 22 206 8.0 9.7 0.00 0.00 0.00 88 1012.3
20260505054724 22 215 3.2 3.2 0.00 0.00 0.00 88 1012.6
20260505054222 22 209 4.8 8.0 0.00 0.00 0.00 88 1012.7
20260505053720 22 193 3.2 4.8 0.00 0.00 0.00 88 1012.4
20260505053216 22 225 0.0 0.0 0.00 0.00 0.00 88 1012.6
20260505052714 22 189 4.8 4.8 0.00 0.00 0.00 88 1012.4
20260505052210 22 156 3.2 4.8 0.00 0.00 0.00 88 1012.4
20260505051707 22 197 1.6 1.6 0.00 0.00 0.00 88 1012.3
20260505051206 22 195 4.8 4.8 0.00 0.00 0.00 88 1012.4
20260505050703 22 222 0.0 0.0 0.00 0.00 0.00 88 1012.7
20260505050201 22 215 3.2 3.2 0.00 0.00 0.00 88 1012.4
20260505041631 22 210 1.6 3.2 0.00 0.00 0.00 87 1012.4
20260505041128 22 190 8.0 12.9 0.00 0.00 0.00 86 1012.4
20260505040625 22 175 8.0 11.3 0.00 0.00 0.00 86 1012.2
20260505040122 22 180 9.7 14.5 0.00 0.00 0.00 86 1012.6
20260505035618 22 208 8.0 12.9 0.00 0.00 0.00 86 1012.2
20260505035115 22 215 3.2 3.2 0.00 0.00 0.00 86 1012.3
20260505034612 22 178 4.8 4.8 0.00 0.00 0.00 85 1012.3
20260505034108 22 133 4.8 8.0 0.00 0.00 0.00 84 1012.4
20260505033605 23 201 3.2 3.2 0.00 0.00 0.00 83 1012.2
20260505033104 23 210 4.8 4.8 0.00 0.00 0.00 83 1012.3
20260505032601 23 219 1.6 1.6 0.00 0.00 0.00 82 1012.4
20260505032057 23 204 0.0 1.6 0.00 0.00 0.00 82 1012.4
20260505031555 23 215 1.6 1.6 0.00 0.00 0.00 82 1012.3
20260505031051 23 197 3.2 3.2 0.00 0.00 0.00 82 1012.3
20260505030548 23 206 1.6 1.6 0.00 0.00 0.00 82 1012.2
20260505030044 23 215 1.6 3.2 0.00 0.00 0.00 81 1012.3
20260505025540 23 216 4.8 8.0 0.00 0.00 0.00 81 1012.0
20260505025039 23 222 4.8 9.7 0.00 0.00 0.00 81 1012.2
20260505024536 23 218 1.6 1.6 0.00 0.00 0.00 80 1012.2
20260505024032 23 159 6.4 9.7 0.00 0.00 0.00 80 1012.1
20260505023529 23 134 0.0 1.6 0.00 0.00 0.00 80 1012.2
20260505023027 23 174 3.2 3.2 0.00 0.00 0.00 79 1012.2
20260505022525 23 196 1.6 3.2 0.00 0.00 0.00 79 1012.2
20260505022022 23 206 3.2 3.2 0.00 0.00 0.00 78 1012.1
20260505021518 23 203 3.2 3.2 0.00 0.00 0.00 78 1012.1
20260505021014 23 216 1.6 1.6 0.00 0.00 0.00 78 1012.3
20260505020509 23 205 1.6 3.2 0.00 0.00 0.00 77 1012.0
20260505020006 23 181 0.0 0.0 0.00 0.00 0.00 77 1011.9
20260505015503 23 209 3.2 3.2 0.00 0.00 0.00 77 1012.1
20260505015000 24 209 0.0 0.0 0.00 0.00 0.00 76 1012.0
20260505014457 24 209 3.2 3.2 0.00 0.00 0.00 75 1012.1
20260505013954 24 209 1.6 1.6 0.00 0.00 0.00 74 1012.1
20260505013451 25 206 1.6 3.2 0.00 0.00 0.00 74 1011.8
20260505012949 25 214 0.0 0.0 0.00 0.00 0.00 74 1012.0
20260505012447 25 181 3.2 4.8 0.00 0.00 0.00 73 1011.8
20260505011943 25 192 4.8 4.8 0.00 0.00 0.00 72 1011.8
20260505011439 25 187 0.0 1.6 0.00 0.00 0.00 71 1011.8
20260505010936 25 199 1.6 1.6 0.00 0.00 0.00 71 1011.9
20260505010432 25 137 4.8 8.0 0.00 0.00 0.00 70 1011.7
20260505005928 25 168 3.2 3.2 0.00 0.00 0.00 70 1011.8
20260505005425 25 214 1.6 1.6 0.00 0.00 0.00 69 1011.7
20260505004923 25 196 4.8 8.0 0.00 0.00 0.00 68 1011.8
20260505004419 25 178 8.0 12.9 0.00 0.00 0.00 67 1011.9
20260505003916 26 216 3.2 3.2 0.00 0.00 0.00 67 1011.8
20260505003413 26 191 4.8 4.8 0.00 0.00 0.00 67 1011.8
20260505002909 26 205 3.2 4.8 0.00 0.00 0.00 66 1011.6
20260505002406 26 140 4.8 4.8 0.00 0.00 0.00 66 1011.7
20260505001904 26 204 0.0 1.6 0.00 0.00 0.00 66 1011.7
20260505001401 26 277 4.8 8.0 0.00 0.00 0.00 66 1011.5
20260505000858 26 199 1.6 3.2 0.00 0.00 0.00 66 1011.6
20260505000358 26 212 4.8 4.8 0.00 0.00 0.00 66 1011.7
20260504235852 26 205 3.2 4.8 0.00 0.00 0.00 66 1011.6
20260504235349 26 179 8.0 16.1 0.00 0.00 0.00 65 1011.8
20260504234846 26 143 8.0 9.7 0.00 0.00 0.00 65 1011.8
20260504234344 26 217 3.2 4.8 0.00 0.00 0.00 65 1012.0
20260504233840 27 186 8.0 14.5 0.00 0.00 0.00 65 1012.0
20260504233336 27 266 6.4 11.3 0.00 0.00 0.00 64 1012.0
20260504232833 27 196 1.6 3.2 0.00 0.00 0.00 64 1012.2
20260504232330 27 179 4.8 8.0 0.00 0.00 0.00 63 1012.1
20260504231826 27 189 1.6 1.6 0.00 0.00 0.00 64 1012.1
20260504231323 27 251 9.7 14.5 0.00 0.00 0.00 63 1012.2
20260504230819 27 105 8.0 11.3 0.00 0.00 0.00 63 1011.9
20260504230318 27 219 6.4 8.0 0.00 0.00 0.00 63 1012.3
20260504225816 27 220 3.2 4.8 0.00 0.00 0.00 62 1012.3
20260504225312 27 186 4.8 9.7 0.00 0.00 0.00 63 1012.4
20260504224809 28 170 9.7 12.9 0.00 0.00 0.00 62 1012.4
20260504224306 27 219 8.0 11.3 0.00 0.00 0.00 62 1012.4
20260504223803 27 284 8.0 12.9 0.00 0.00 0.00 62 1012.4
20260504223258 27 210 3.2 3.2 0.00 0.00 0.00 63 1013.0
20260504222755 27 186 14.5 22.5 0.00 0.00 0.00 62 1012.6
20260504222252 27 215 12.9 14.5 0.00 0.00 0.00 62 1012.9
20260504221750 27 172 11.3 12.9 0.00 0.00 0.00 62 1012.7
20260504221247 27 210 9.7 12.9 0.00 0.00 0.00 62 1012.8
20260504220743 27 199 8.0 14.5 0.00 0.00 0.00 61 1013.0
20260504220241 28 199 6.4 9.7 0.00 0.00 0.00 61 1012.8
20260504215738 28 180 6.4 14.5 0.00 0.00 0.00 60 1012.9
20260504215234 28 186 4.8 8.0 0.00 0.00 0.00 60 1013.0
20260504214730 28 193 1.6 3.2 0.00 0.00 0.00 61 1012.8
20260504214227 28 129 8.0 11.3 0.00 0.00 0.00 60 1013.0
20260504213724 28 214 1.6 1.6 0.00 0.00 0.00 62 1013.0
20260504213220 28 153 6.4 12.9 0.00 0.00 0.00 61 1012.9
20260504212717 28 181 9.7 17.7 0.00 0.00 0.00 61 1012.9
20260504212214 28 133 6.4 9.7 0.00 0.00 0.00 61 1013.0
20260504211711 27 121 11.3 14.5 0.00 0.00 0.00 62 1013.3
20260504211207 27 197 8.0 12.9 0.00 0.00 0.00 62 1013.3
20260504210705 28 152 12.9 16.1 0.00 0.00 0.00 62 1013.2
20260504210201 28 179 16.1 17.7 0.00 0.00 0.00 60 1013.4
20260504205659 28 184 3.2 3.2 0.00 0.00 0.00 62 1013.5
20260504205155 28 185 1.6 3.2 0.00 0.00 0.00 63 1013.9
20260504204654 28 214 8.0 11.3 0.00 0.00 0.00 60 1013.8
20260504204153 28 229 3.2 4.8 0.00 0.00 0.00 61 1013.8
20260504203651 28 210 3.2 3.2 0.00 0.00 0.00 61 1013.8
20260504203148 28 206 1.6 3.2 0.00 0.00 0.00 61 1013.9
20260504202643 28 165 11.3 16.1 0.00 0.00 0.00 61 1014.4
20260504202140 28 144 8.0 9.7 0.00 0.00 0.00 62 1014.3
20260504201637 28 224 3.2 4.8 0.00 0.00 0.00 61 1014.2
20260504201135 28 164 8.0 9.7 0.00 0.00 0.00 61 1014.5
20260504200632 27 165 12.9 14.5 0.00 0.00 0.00 61 1014.7
20260504200128 27 147 11.3 12.9 0.00 0.00 0.00 60 1014.5
20260504195624 28 192 4.8 8.0 0.00 0.00 0.00 60 1014.7
20260504195120 28 214 6.4 9.7 0.00 0.00 0.00 61 1014.8
20260504194617 28 227 6.4 11.3 0.00 0.00 0.00 61 1014.7
20260504194113 27 161 6.4 8.0 0.00 0.00 0.00 63 1014.9
20260504193609 27 234 8.0 11.3 0.00 0.00 0.00 63 1015.1
20260504193108 27 223 9.7 11.3 0.00 0.00 0.00 62 1015.1
20260504192606 27 267 0.0 1.6 0.00 0.00 0.00 62 1015.2
20260504192104 26 214 3.2 4.8 0.00 0.00 0.00 64 1015.0
20260504191602 26 162 8.0 11.3 0.00 0.00 0.00 64 1015.1
20260504191058 27 136 12.9 16.1 0.00 0.00 0.00 63 1015.5
20260504190554 27 206 1.6 1.6 0.00 0.00 0.00 65 1015.4
20260504190050 26 227 8.0 9.7 0.00 0.00 0.00 63 1015.6
20260504185547 27 220 6.4 11.3 0.00 0.00 0.00 64 1015.8
20260504185044 27 211 4.8 9.7 0.00 0.00 0.00 63 1015.8
20260504184539 27 206 3.2 4.8 0.00 0.00 0.00 63 1015.8
20260504184035 26 143 8.0 11.3 0.00 0.00 0.00 63 1015.5
20260504183532 27 277 3.2 3.2 0.00 0.00 0.00 64 1015.9
20260504183030 26 261 3.2 3.2 0.00 0.00 0.00 64 1015.8
20260504182527 27 203 4.8 4.8 0.00 0.00 0.00 63 1016.0
20260504182024 27 178 3.2 4.8 0.00 0.00 0.00 62 1016.2
20260504181521 26 203 6.4 9.7 0.00 0.00 0.00 63 1016.2
20260504181020 26 201 4.8 8.0 0.00 0.00 0.00 64 1016.4
20260504180518 27 207 6.4 9.7 0.00 0.00 0.00 64 1016.2
20260504180017 26 213 3.2 4.8 0.00 0.00 0.00 66 1016.3
20260504175513 26 139 9.7 12.9 0.00 0.00 0.00 64 1016.3
20260504175010 26 239 0.0 0.0 0.00 0.00 0.00 69 1016.3
20260504174508 26 190 8.0 9.7 0.00 0.00 0.00 66 1016.5
20260504174005 25 199 11.3 16.1 0.00 0.00 0.00 66 1016.5
20260504173501 25 211 1.6 4.8 0.00 0.00 0.00 70 1016.7
20260504172959 25 210 9.7 12.9 0.00 0.00 0.00 68 1017.4
20260504172455 24 215 1.6 1.6 0.00 0.00 0.00 71 1017.1
20260504171951 25 205 8.0 11.3 0.00 0.00 0.00 69 1017.3
20260504171449 24 196 3.2 4.8 0.00 0.00 0.00 70 1017.5
20260504170945 24 206 8.0 11.3 0.00 0.00 0.00 71 1017.5
20260504170442 24 207 8.0 11.3 0.00 0.00 0.00 71 1017.6
20260504160401 23 216 4.8 4.8 0.00 0.00 0.00 72 1018.0
20260504150825 22 204 3.2 3.2 0.00 0.00 0.00 75 1018.5
20260504150322 22 157 6.4 8.0 0.00 0.00 0.00 74 1018.4
20260504141252 21 335 3.2 4.8 0.00 0.00 0.00 77 1018.2
20260504140749 20 268 3.2 4.8 0.00 0.00 0.00 78 1018.1
20260504140244 21 159 4.8 8.0 0.00 0.00 0.00 76 1018.4
20260504130713 18 184 3.2 4.8 0.00 0.00 0.00 83 1018.3
20260504130209 18 190 4.8 4.8 0.00 0.00 0.00 82 1018.3
20260504120133 14 223 0.0 0.0 0.00 0.00 0.00 93 1017.6
20260504110600 15 223 0.0 0.0 0.00 0.00 0.00 91 1017.8
20260504100522 15 210 0.0 0.0 0.00 0.00 0.00 88 1018.1
20260504081915 17 198 3.2 3.2 0.00 0.00 0.00 81 1018.4
20260504081412 16 167 6.4 9.7 0.00 0.00 0.00 81 1018.5
20260504080908 17 169 0.0 1.6 0.00 0.00 0.00 81 1018.6
20260504080405 17 216 3.2 3.2 0.00 0.00 0.00 80 1018.7
20260504070333 17 210 1.6 3.2 0.00 0.00 0.00 77 1019.3